一网星座-0312星 (ONEWEB-0312 )

导读

ONEWEB-0312是英国OneWeb卫星互联网星座组网卫星,由英国主导的OneWeb项目规划,于2021年8月21日发射入轨。作为OneWeb低轨卫星星座的组成部分,它服务于全球高速卫星互联网组网,面向企业与政府机构提供安全稳定的宽带连接,助力偏远地区网络覆盖,是OneWeb实现全球卫星互联网部署的重要节点,推动全球空天地一体化网络建设。

基本信息
目录编号:
49098
目录名称:
ONEWEB-0312
国际标识:
2021-075Z
轨道中心:
EARTH
卫星名称:
一网星座-0312星
卫星全名:
一网星座-0312星 (ONEWEB-0312 )
卫星状态:
在轨 (已飞行1847 天)
发射日期:
2021-08-21 UTC
国别 :
英国 (GB)
星等 :
--
该卫星已列入 空间交会检测服务 Space Conjunction Data Service (SCDS) ,当前飞行风险评估等级: 无高风险
轨道信息
数据来源 国际轨道数据 AOE轨道数据
星历时间 2026-09-11T13:20:30+0800
10小时前
查看轨道信息
2026-09-11T03:00:00+0800
20小时前
查看轨道信息
半长轴 7571.858km 7571.853km
偏心率 0.0001683 0.0001581
轨道倾角 87.921° 87.922°
近地点辐角 108.436° 100.652°
升交点赤经 348.785° 348.872°
平近点角 251.695° 16.655°
近地点 1192.446km 1192.518km
远地点 1194.996km 1194.914km
周期 109.286分钟 109.286分钟
每日圈数 13.176471 13.176483
详细信息
平衡模式:
三轴稳定
覆盖范围:
全球
运营商:
一网卫星公司
运营商所在国:
英国
制造商(研发单位):
一网卫星公司
制造商所在国:
英国
使用方式:
暂无
卫星简介
OneWeb卫星网络由648颗重约125公斤的微型卫星组成,运行在1200公里的轨道上。 每颗卫星都能够提供至少每秒8千兆位的吞吐量,以使用其高吞吐量的Ku频段有效载荷为家庭和移动平台提供互联网接入。该卫星仍在工作。
2D轨道图
3D轨道图
轨道高度分析图
轨道倾角分析图
轨道综合分析图
查看轨道综合分析图
交会数据列表
事件ID 空间交会对象 最接近时刻(TCA) 交会距离 交会风险概率(CRP) 交会风险指数(CRI) 操作
CDM_260907-132704-528604-909828
2026-09-07T
13:27:07+0000
2.066 km
极远距离
2.326076E-6 低风险 0.42
与全量物体交会距离演化趋势
与全量物体交会风险概率演化趋势